Find CO3D F1

NORAD ID: 64903 Int'l Des: 2025-156 Owner: CNES Country: F operational
LEOCIRCULARRETROGRADESSO

リアルタイム位置

3D地球を読み込み中...

CO3D F1について

説明を読み込み中...

次回通過

Passes for default location (London). Set your location on the main map for personalized predictions.

高度履歴

Loading altitude history...

軌道要素

1 64903U 25156E 26103.64843334 .00003151 00000-0 12932-3 0 9998
2 64903 98.0928 182.3847 0110033 5.8142 354.4339 15.19681462 39726
Epoch: Apr 13, 2026 • Age: 100 hours

現在のステータス

高度 583.7 km
速度 7.53 km/s
衛星直下点 -8.54°S, 139.5°W
打ち上げ日 Jul 26, 2025
運用期間 0.7 years
タイプ earth observation

技術仕様

分類 Payload
質量 285.00 kg
乾燥質量 285.00 kg
総質量 285.00 kg
長さ 1.20 m
直径 0.50 m
スパン 2.50 m
形状 Box+ 2 pan
製造者 ADST
バスタイプ Astrobus-SE
フェーズステータス In Orbit
所有者/国 CNES/F

Most Searched